www.pogodaiklimat.ru

Погода и климат >> Архив погоды >> Иран >> Сафиабад


ПОГОДА в Сафиабаде

  • Прогноз погоды в Сафиабаде
  • Монитор погоды в Сафиабаде

АРХИВ ПОГОДЫ в Сафиабаде

Время (UTC), дата Ветер
(напр.,м/с)
 
Видим.   Явления Облачность Т
(С)
Тd
(С)
f
(%)
Тe
(С)
Тes
(С)
Комфортность P
(гПа)
Po
(гПа)
Тmin
(С)
Tmax
(С)
R
(мм)
R24
(мм)
S
(см)
12 11.02 З 4 10 км 3/0
[Ac trans]
+16.4 +13.7 84 +16 +18 1013.6 1003.8
15 11.02 З 5 8000 м дымка 1/0
[Ac trans]
+13.7 +12.4 92 +12 +12 1014.6 1004.6 +16.8
18 11.02 З 3 8000 м дымка ясно +10.7 +10.7 100 +8 +8 1015.1 1005.1
21 11.02 ЮЗ 1 8000 м дымка ясно +8.8 +8.8 100 +8 +8 1015.4 1005.4
00 12.02 штиль 0 8000 м дымка ясно +7.2 +7.2 100 +6 +6 1015.4 1005.4
03 12.02 В 5 800 м туман ?/? +9.2 +9.2 100 +6 +6 1016.4 1006.4 +6.8
06 12.02 ЮВ 2 3000 м дымка {туман} 8/8 900 м
[St]
+10.1 +9.6 97 +8 +10 1018.2 1008.1
09 12.02 Ю 3 6000 м дымка 10/5 1200 м
[Sc As op]
+12.5 +12.5 100 +11 +12 1018.8 1008.7
12 12.02 штиль 0 8000 м дымка 4/4 1200 м
[Cu med, cong]
+15.3 +12.1 81 +15 +18 1018.0 1008.0
15 12.02 штиль 0 10 км ясно +13.4 +10.3 81 +13 +13 1019.6 1009.5 +16.1
18 12.02 В 2 8000 м дымка ясно +10.2 +9.9 98 +9 +9 1021.5 1011.4
21 12.02 ЮЗ 3 1200 м дымка ясно +7.8 +7.8 100 +5 +5 1022.4 1012.2
00 13.02 штиль 0 1200 м дымка ясно +7.7 +7.7 100 +7 +7 1022.4 1012.3
03 13.02 СВ 3 1200 м дымка ясно +6.7 +6.7 100 +3 +3 1023.3 1013.1 +6.7
06 13.02 штиль 0 6000 м дымка ясно +13.3 +13.3 100 +13 +20 1025.4 1015.4
09 13.02 ЮВ 3 6000 м мгла ясно +16.6 +12.9 79 +16 +26 1024.7 1014.7
12 13.02 Ю 3 10 км ясно +18.8 +10.8 60 +20 +23 1022.6 1012.6
15 13.02 ЮЗ 3 10 км 6/0
[Cs]
+15.3 +11.4 78 +15 +15 1022.6 1012.6 +20.3
18 13.02 штиль 0 8000 м дымка ясно +11.3 +10.7 96 +11 +11 1022.8 1012.7
21 13.02 штиль 0 3000 м дымка ясно +9.0 +9.0 100 +8 +8 1023.1 1013.1
00 14.02 С 1 2000 м дымка ясно +8.7 +8.7 100 +8 +8 1021.6 1011.7
03 14.02 СЗ 3 2000 м дымка ясно +7.3 +7.3 100 +4 +4 1021.5 1011.4 +7.0
06 14.02 штиль 0 6000 м дымка ясно +15.5 +13.0 85 +15 +23 1022.4 1012.4
09 14.02 ЮВ 3 7000 м мгла 4/0
[Ac und]
+18.4 +11.0 62 +19 +26 1021.2 1011.3
12 14.02 ЮВ 5 10 км 8/8 900 м
[Cb calv Ac As]
+19.0 +7.9 48 +19 +20 1018.6 1008.7
15 14.02 ЮВ 2 10 км 8/8 900 м
[Cb calv Ac As]
+16.1 +9.6 65 +16 +16 1017.3 1007.3 +19.5
18 14.02 В 2 10 км 8/4 1200 м
[Sc diur, vesp Ac As]
+14.3 +11.6 84 +14 +14 1019.0 1009.1
21 14.02 В 4 10 км {ливн. осадки} 8/4 1200 м
[Sc diur, vesp Ac As]
+13.5 +11.6 88 +12 +12 1018.0 1008.1
00 15.02 В 3 10 км {ливн. осадки} 9/6 900 м
[Cb calv As trans]
+13.0 +11.5 91 +12 +12 1017.6 1007.8 0.9
03 15.02 СВ 5 10 км 9/6 900 м
[Cb calv As trans]
+12.2 +11.3 94 +10 +10 1017.2 1007.3 +12.2
06 15.02 СВ 6 10 км 8/8 1200 м
[Sc]
+14.4 +12.5 88 +12 +13 1016.6 1006.7 0.5
09 15.02 СВ 5 10 км 8/8 1200 м
[Sc]
+18.0 +12.3 69 +18 +19 1016.3 1006.4
12 15.02 ЮВ 12 12 км 8/8 1200 м
[Sc]
+20.1 +12.6 62 +21 +21 комфорт 1013.7 1003.9
15 15.02 Ю 6 10 км 8/8 1050 м
[Cb calv]
+16.7 +10.2 65 +16 +16 1014.7 1004.9 +20.3
18 15.02 ЮВ 9 10 км 8/8 1200 м
[Sc]
+16.2 +9.9 66 +14 +14 1015.1 1005.2
21 15.02 Ю 12 10 км 8/8 1200 м
[Sc]
+15.6 +11.1 75 +13 +13 1014.9 1005.1
00 16.02 ЮЗ 4 10 км 8/8 1200 м
[Sc]
+13.4 +12.2 92 +12 +12 1016.2 1006.4
03 16.02 штиль 0 8000 м дымка 3/3 1200 м
[Sc]
+11.2 +11.2 100 +10 +10 1017.0 1007.1 +11.1
06 16.02 штиль 0 3000 м дымка 1/0
[Ci ing]
+14.9 +13.6 92 +15 +22 1018.6 1008.7
09 16.02 З 6 8000 м мгла ясно +17.1 +7.8 54 +16 +21 1018.5 1008.7
12 16.02 З 6 10 км ясно +18.2 +4.2 39 +18 +19 1017.3 1007.4
15 16.02 З 4 10 км ясно +13.8 +8.0 68 +12 +12 1018.3 1008.3 +18.4
18 16.02 З 4 10 км ясно +9.5 +6.8 83 +7 +7 1019.7 1009.6
21 16.02 штиль 0 10 км ясно +7.2 +6.2 93 +6 +6 1019.5 1009.5
00 17.02 штиль 0 4000 м дымка ясно +5.8 +5.5 98 +5 +5 1019.3 1009.2
03 17.02 СЗ 3 2000 м дымка ясно +4.8 +4.8 100 +1 +1 1019.7 1009.6 +4.4
06 17.02 штиль 0 10 км 3/3 1200 м
[Sc]
+11.0 +9.5 90 +10 +16 1021.2 1011.1
09 17.02 Ю 2 10 км 5/3 1200 м
[Cb calv Ac trans]
+15.8 +9.5 66 +16 +23 1020.6 1010.6
12 17.02 СЗ 4 10 км 6/3 1200 м
[Cb calv Ac As]
+17.3 +7.3 52 +17 +18 1018.1 1008.1
15 17.02 З 4 10 км 3/3 1200 м
[Cb calv]
+14.8 +7.9 63 +14 +14 1018.1 1008.0 +17.8
18 17.02 СЗ 3 10 км ясно +10.8 +7.9 82 +9 +9 1019.1 1009.0
21 17.02 штиль 0 10 км ясно +8.3 +7.2 93 +7 +7 1018.7 1008.7
00 18.02 З 2 7000 м дымка ясно +7.0 +6.7 98 +5 +5 1017.9 1007.9
03 18.02 штиль 0 6000 м дымка ясно +6.3 +6.3 100 +5 +5 1017.7 1007.6 +6.3
06 18.02 штиль 0 10 км ясно +13.5 +10.8 84 +13 +21 1018.7 1008.6
09 18.02 ЮЗ 2 10 км 4/4 900 м
[Cu hum]
+17.9 +9.5 58 +18 +25 1017.3 1007.3

 

Местоположение метеостанции Сафиабад (Иран): широта 32.27 долгота 48.42 высота над уровнем моря 83 м.

В архиве по умолчанию представлена погода в Сафиабаде за последнюю неделю. Архивные данные за месяц целиком и за предыдущие месяцы, начиная с января 2011 года, Вы можете получить, выбрав интересующий диапазон дат из раскрывающегося списка и нажав кнопку "Ввод!".


*Определитесь, кто Вы:
робот инопланетянин человек

Внимание! Время в таблицах - всемирное. Для получения местного времени необходимо прибавить поправку, которая равна 3.5 ч.

Смотрите также архив погоды в соседних городах и на ближайших метеорологических станциях:

Погода в Месджеде-Солеймане (Иран) (86 км)
Погода в Ахвазе (Иран) (107 км)
Погода в Амаре (Ирак) (127 км)
Погода в Хорремабаде (Иран) (135 км)
Погода в Али Аль-Гарби (Ирак) (161 км)
Погода в Элигудерзе (Иран) (172 км)
Погода в Басре (Ирак) (199 км)
Погода в Басре аэропорт (Ирак) (204 км)
Погода в Омидийе (Иран) (205 км)
Погода в Абадане (Иран) (212 км)

Пояснения к столбцам:

Ветер - указаны скорость ветра в м/с - средняя за 10 мин, порывы в срок и между сроками (в фигурных скобках) и направление, откуда дует ветер: С - северный, СВ - северо-восточный, В - восточный, ЮВ - юго-восточный, Ю - южный, ЮЗ - юго-западный, З - западный, СЗ - северо-западный.
Видимость - горизонтальная дальность видимости в метрах или километрах. При видимости от 1 до 10 км при отсутствии осадков обычно наблюдается дымка, при ухудшении видимости до 1 км и менее - туман. В сухую погоду видимость может ухудшаться дымом, пылью или мглою.
Явления - указаны атмосферные явления, наблюдавшиеся в срок или в последний час перед сроком; фигурными скобками обозначены явления, наблюдавшиеся между сроками (за 1-3 часа до срока); квадратными скобками обозначены град или гололедные отложения с указанием их диаметра в мм.
Облачность - указаны через наклонную черту общая и нижняя облачность в баллах и высота нижней границы облаков в метрах; квадратными скобками обозначены формы облаков: Ci - перистые, Cs - перисто-слоистые, Cc - перисто-кучевые, Ac - высококучевые, As - высокослоистые, Sc - слоисто-кучевые, Ns - слоисто-дождевые, Cu - кучевые, Cb - кучево-дождевые. Подробнее классификацию облаков см. в Атласе облаков (PDF).
T - Температура воздуха - температура, измеренная на высоте 2 м над землей.
Td - Температура точки росы - температура, при понижении до которой содержащийся в воздухе водяной пар достигнет насыщения.
f - Относительная влажность воздуха - влажноcть воздуха, измеренная на высоте 2 м над землей.
Te - Эффективная температура - температура, которую ощущает одетый по сезону человек в тени. Характеристика душности погоды. При расчете учитывается влияние влажности воздуха и скорости ветра на теплоощущения человека.
Tes - Эффективная температура на солнце - температура, которую ощущает человек, с поправкой на солнечный нагрев. Характеристика знойности погоды. Зависит от высоты солнца над горизонтом, облачности и скорости ветра. Ночью, в пасмурную погоду, а также при ветре 12 м/с и более поправка равна нулю.
P - Атмосферное давление - приведенное к уровню моря атмосферное давление.
Po - Атмосферное давление - измеренное на уровне метеостанции атмосферное давление.
Tmin - Минимальная температура - минимум температуры воздуха на высоте 2 м над землей.
Tmax - Максимальная температура - максимум температуры воздуха на высоте 2 м над землей.
R - Количество осадков - Количество выпавших осадков за период времени, мм. При наведении курсора мыши на число - период времени, за который выпало указанное количество осадков.
R24 - Количество осадков - Количество выпавших осадков за 24 часа, мм.
S - Снежный покров - Высота снежного покрова, см. При наведении курсора мыши на число - состояние снежного покрова и степень покрытия местности в баллах.